Date,TemperatureHighF,TemperatureAvgF,TemperatureLowF,DewpointHighF,DewpointAvgF,DewpointLowF,HumidityHigh,HumidityAvg,HumidityLow,PressureMaxIn,PressureMinIn,WindSpeedMaxMPH,WindSpeedAvgMPH,GustSpeedMaxMPH,PrecipitationSumIn
2013-1-1,37.4,11.2,28.2,32.0,-57.3,-99.9,96,28,78,30.56,30.40,7,-672,9,0.00
2013-1-2,44.9,12.5,27.9,36.0,-55.7,-99.9,95,28,66,30.41,30.25,4,-666,7,0.00
2013-1-3,41.5,10.8,26.4,35.0,-61.1,-99.9,94,24,66,30.25,30.13,8,-702,8,0.00
2013-1-4,95.5,13.9,35.7,96.0,-51.3,-99.9,100,33,95,30.35,30.17,9,-646,10,0.01
2013-1-5,45.4,21.6,38.6,44.0,-27.9,-99.9,100,47,78,30.23,30.10,15,-481,16,0.01
2013-1-6,44.5,15.8,41.8,40.0,-49.6,-99.9,90,30,81,30.17,29.99,11,-636,20,0.00
2013-1-7,50.5,28.1,44.0,46.0,-14.2,-99.9,90,52,81,30.15,29.81,19,-396,24,0.00
2013-1-8,62.3,5.6,38.7,62.0,-81.6,-99.9,100,12,93,30.17,29.66,7,-870,8,0.00
2013-1-9,51.5,24.1,37.5,49.0,-20.4,-99.9,91,48,79,29.95,29.69,11,-416,15,0.00
2013-1-10,39.7,11.5,33.6,34.0,-59.9,-99.9,99,23,59,30.18,29.95,12,-689,18,0.01
2013-1-11,37.1,19.7,24.7,23.0,-22.0,-99.9,89,45,52,30.37,30.18,16,-355,18,0.00
2013-1-12,34.1,19.2,22.0,23.0,-16.8,-99.9,89,52,52,30.50,30.37,13,-306,14,0.00
2013-1-13,36.5,21.1,20.4,28.0,-15.8,-99.9,91,53,68,30.54,30.49,4,-329,5,0.00
2013-1-14,33.7,20.2,30.3,31.0,-19.0,-99.9,92,56,84,30.63,30.51,6,-373,7,0.00
2013-1-15,43.4,20.7,27.1,34.0,-21.2,-99.9,94,52,66,30.75,30.62,4,-393,5,0.03
2013-1-16,40.7,31.8,26.6,32.0,28.2,25.0,94,87,71,30.74,30.58,6,2,9,0.00
2013-1-17,44.4,31.9,25.4,36.0,28.9,24.0,94,89,71,30.59,30.33,4,1,6,0.01
2013-1-18,36.4,30.7,27.2,35.0,29.6,26.0,96,95,93,30.40,30.31,10,3,10,0.00
2013-1-19,33.6,30.7,28.8,33.0,30.0,28.0,97,96,96,30.43,30.39,6,1,7,0.00
2013-1-20,46.1,32.9,25.5,39.0,31.0,24.0,97,93,76,30.44,30.33,8,1,8,0.01
2013-1-21,45.1,32.2,24.2,36.0,29.9,23.0,97,91,69,30.32,30.17,6,1,7,0.00
2013-1-22,36.5,32.7,28.3,36.0,31.9,27.0,97,96,95,30.20,29.95,5,1,6,0.01
2013-1-23,46.1,40.3,34.3,43.0,37.7,33.0,96,90,84,30.13,29.83,15,5,20,0.26
2013-1-24,46.0,42.6,39.7,41.0,38.3,37.0,93,85,77,30.23,30.03,14,4,18,0.09
2013-1-25,48.8,44.0,35.3,44.0,40.9,34.0,95,89,82,30.08,29.93,12,3,13,0.01
2013-1-26,42.7,38.6,34.3,39.0,36.6,33.0,96,92,84,30.05,29.89,8,2,10,0.34
2013-1-27,40.6,39.5,38.4,39.0,37.2,36.0,96,91,89,30.06,30.00,8,4,16,0.15
2013-1-28,41.1,39.6,38.5,38.0,37.1,36.0,93,90,88,30.08,30.00,9,3,13,0.18
2013-1-29,45.6,42.4,38.4,44.0,40.3,37.0,96,92,82,30.33,30.08,8,2,13,0.17
2013-1-30,96.5,45.0,43.0,97.0,39.6,-99.9,100,88,88,30.39,30.33,8,-29,15,0.03
2013-1-31,49.7,26.1,45.5,50.0,-20.1,-99.9,100,50,86,30.39,30.31,12,-445,15,0.06
2013-2-1,49.5,32.2,39.9,43.0,1.4,-99.9,96,63,75,30.46,30.36,11,-282,13,0.00
2013-2-2,47.3,31.6,33.8,42.0,8.0,-99.9,97,72,80,30.44,30.28,6,-219,8,0.00
2013-2-3,45.9,19.7,38.9,43.0,-34.2,-99.9,96,44,88,30.34,30.21,7,-530,9,0.03
2013-2-4,51.4,31.6,42.2,43.0,-4.1,-99.9,94,57,71,30.20,29.87,9,-310,17,0.00
2013-2-5,50.0,34.1,41.7,42.0,2.6,-99.9,95,58,70,29.92,29.80,16,-268,32,0.01
2013-2-6,49.6,30.6,42.8,41.0,-6.1,-99.9,87,54,64,30.03,29.80,18,-322,25,0.00
2013-2-7,49.4,28.2,31.3,39.0,-7.3,-99.9,94,55,64,30.23,29.79,16,-313,24,0.00
2013-2-8,44.7,29.0,29.3,38.0,-1.4,-99.9,94,62,72,30.34,30.23,7,-275,9,0.00
2013-2-9,43.7,17.8,38.5,44.0,-40.0,-99.9,100,39,84,30.38,30.29,5,-568,6,0.01
2013-2-10,47.7,27.3,28.2,39.0,-8.5,-99.9,96,57,65,30.42,30.36,7,-311,9,0.00
2013-2-11,44.9,30.0,39.9,42.0,-2.9,-99.9,95,60,78,30.38,30.35,8,-300,13,0.01
2013-2-12,57.4,16.1,44.4,50.0,-51.5,-99.9,88,28,73,30.43,30.27,10,-657,15,0.00
2013-2-13,49.4,30.8,43.4,42.0,-6.6,-99.9,85,53,73,30.52,30.30,10,-330,13,0.00
2013-2-14,47.8,32.0,42.1,44.0,1.8,-99.9,95,64,77,30.62,30.50,5,-279,9,0.00
2013-2-15,54.2,30.9,36.9,44.0,-3.6,-99.9,97,58,64,30.61,30.20,8,-314,9,0.00
2013-2-16,75.8,20.3,39.7,71.0,-39.2,-99.9,94,35,65,30.20,30.12,15,-567,19,0.00
2013-2-17,45.5,28.2,38.7,38.0,-8.1,-99.9,90,55,68,30.26,30.15,11,-324,17,0.00
2013-2-18,46.4,29.9,35.9,38.0,-1.7,-99.9,93,58,63,30.14,29.81,11,-269,12,0.00
2013-2-19,48.5,29.2,31.4,39.0,-3.1,-99.9,94,57,57,30.03,29.78,13,-271,21,0.00
2013-2-20,45.5,37.5,30.6,38.0,31.8,-99.9,95,87,69,30.07,30.02,11,-8,11,0.02
2013-2-21,42.5,40.1,32.1,39.0,36.9,31.0,96,88,85,30.07,30.01,13,6,22,0.03
2013-2-22,47.1,42.0,39.4,41.0,37.8,33.0,91,85,67,30.04,29.67,24,9,42,0.10
2013-2-23,49.9,42.9,38.4,38.0,36.0,33.0,88,77,54,30.37,29.88,12,4,15,0.00
2013-2-24,47.2,43.7,38.9,38.0,36.5,35.0,88,76,68,30.39,29.88,28,7,40,0.00
2013-2-25,47.5,42.9,39.7,39.0,37.4,35.0,89,81,63,30.30,29.86,22,8,33,0.03
2013-2-26,46.5,42.8,38.8,37.0,34.4,32.0,90,73,59,30.36,30.18,15,6,21,0.01
2013-2-27,47.3,42.5,39.2,39.0,37.8,36.0,94,83,68,30.34,30.21,14,3,17,0.00
2013-2-28,51.3,41.7,37.7,48.0,39.9,36.0,97,93,84,30.31,30.21,18,4,28,0.40
2013-3-1,56.9,53.6,50.4,50.0,48.7,48.0,90,83,74,30.31,30.25,22,10,31,0.00
2013-3-2,55.8,49.7,40.1,49.0,44.7,38.0,94,83,71,30.26,30.03,21,7,29,0.00
2013-3-3,47.8,40.3,32.1,37.0,34.8,30.0,93,81,62,30.35,30.20,11,3,17,0.00
2013-3-4,52.3,38.7,28.6,38.0,30.4,27.0,95,75,44,30.35,30.01,12,3,15,0.00
2013-3-5,47.6,41.9,38.7,40.0,31.7,28.0,94,68,51,30.01,29.80,23,6,24,0.01
2013-3-6,43.4,41.0,38.2,41.0,37.9,35.0,94,88,78,29.92,29.65,6,2,8,0.37
2013-3-7,51.9,33.8,38.5,52.0,11.3,-99.9,100,71,80,30.14,29.92,8,-203,8,0.08
2013-3-8,55.4,30.2,32.7,48.0,-2.6,-99.9,97,59,62,30.28,30.13,8,-290,12,0.01
2013-3-9,51.7,32.0,30.1,41.0,-1.1,-99.9,95,57,62,30.53,30.28,12,-268,15,0.00
2013-3-10,46.9,36.1,37.3,41.0,16.1,-99.9,93,71,76,30.52,30.46,6,-164,9,0.00
2013-3-11,51.4,32.6,35.5,46.0,-1.2,-99.9,95,55,61,30.48,30.16,6,-284,8,0.01
2013-3-12,52.2,26.2,49.4,49.0,-24.4,-99.9,90,45,86,30.15,30.00,16,-485,30,0.02
2013-3-13,55.9,19.8,52.1,56.0,-45.0,-99.9,100,31,79,30.19,30.07,13,-627,15,0.07
2013-3-14,62.8,20.7,48.9,63.0,-43.3,-99.9,100,30,67,30.15,30.03,12,-613,20,0.02
2013-3-15,59.1,26.5,45.6,50.0,-27.5,-99.9,95,39,70,30.23,30.14,9,-508,31,0.07
2013-3-16,49.5,20.9,44.0,44.0,-35.8,-99.9,92,39,75,30.13,29.87,14,-546,17,0.14
2013-3-17,49.3,29.5,40.1,36.0,-10.4,-99.9,82,45,51,30.18,29.96,12,-325,18,0.00
2013-3-18,51.5,36.7,36.7,37.0,11.5,-99.9,90,57,40,30.28,30.09,14,-157,18,0.00
2013-3-19,53.6,36.4,31.8,40.0,13.6,-99.9,90,61,43,30.28,29.58,11,-144,22,0.03
2013-3-20,52.2,37.3,40.5,48.0,10.9,-99.9,91,60,57,29.98,29.33,26,-192,33,0.01
2013-3-21,48.3,35.5,37.3,36.0,14.0,-99.9,92,63,55,30.22,29.99,14,-141,17,0.04
2013-3-22,45.6,26.1,31.5,37.0,-13.8,-99.9,95,47,50,30.41,30.22,12,-338,17,0.00
2013-3-23,52.3,32.7,28.7,33.0,3.7,-99.9,90,53,40,30.44,30.35,8,-199,11,0.00
2013-3-24,54.8,37.5,30.7,34.0,12.5,-99.9,88,54,37,30.35,30.18,7,-132,11,0.00
2013-3-25,61.4,39.3,36.8,41.0,9.1,-99.9,87,51,35,30.18,30.00,7,-196,11,0.00
2013-3-26,60.6,39.8,35.2,42.0,11.6,-99.9,91,54,42,30.06,30.01,7,-186,11,0.00
2013-3-27,60.3,42.3,37.4,45.0,17.6,-99.9,91,59,53,30.04,29.98,8,-164,11,0.00
2013-3-28,62.0,41.5,39.7,46.0,12.1,-99.9,90,56,52,30.16,30.04,10,-217,13,0.00
2013-3-29,62.4,44.0,40.4,48.0,20.4,-99.9,94,63,56,30.30,30.18,10,-166,12,0.00
2013-3-30,65.0,43.9,39.7,50.0,19.9,-99.9,96,62,52,30.32,30.13,8,-166,12,0.00
2013-3-31,66.7,45.1,38.7,48.0,18.8,-99.9,94,57,42,30.13,29.95,8,-170,10,0.00
2013-4-1,57.6,43.0,42.5,49.0,21.5,-99.9,92,68,72,30.16,29.99,14,-164,22,0.00
2013-4-2,54.7,42.5,47.7,46.0,20.4,-99.9,90,66,69,30.23,30.16,13,-167,19,0.00
2013-4-3,62.0,41.5,48.1,50.0,14.6,-99.9,92,62,62,30.22,30.01,6,-218,12,0.00
2013-4-4,56.5,43.5,47.4,53.0,23.8,-99.9,95,73,78,30.01,29.61,26,-165,41,0.24
2013-4-5,59.1,44.2,49.8,51.0,20.9,-99.9,92,65,71,29.85,29.68,22,-177,34,0.02
2013-4-6,55.8,31.8,47.5,99.9,-9.6,-99.9,100,45,55,29.91,29.66,17,-367,33,0.05
2013-4-7,49.0,32.6,42.2,44.0,1.9,-99.9,94,62,77,29.89,29.58,9,-278,20,0.35
2013-4-8,56.3,42.9,43.6,45.0,26.7,-99.9,93,72,62,30.29,29.90,12,-111,15,0.01
2013-4-9,55.4,44.7,40.6,46.0,30.0,-99.9,94,72,58,30.36,30.15,9,-86,18,0.00
2013-4-10,54.2,43.0,46.7,48.0,22.0,-99.9,95,67,59,30.24,29.88,19,-149,27,0.03
2013-4-11,55.7,44.3,43.4,42.0,25.0,-99.9,86,61,44,30.32,30.21,13,-91,17,0.00
2013-4-12,45.3,38.1,39.5,41.0,24.5,-99.9,87,76,77,30.21,29.68,15,-93,24,0.12
2013-4-13,50.1,37.5,36.0,41.0,21.8,-99.9,94,73,68,30.02,29.75,17,-108,24,0.12
2013-4-14,52.5,42.6,37.1,40.0,30.6,-99.9,98,74,53,30.04,29.96,12,-52,14,0.03
2013-4-15,54.3,43.0,40.5,43.0,29.4,-99.9,90,71,57,30.21,29.97,13,-64,22,0.00
2013-4-16,59.0,45.3,33.1,38.0,23.0,-99.9,93,54,26,30.43,30.21,18,-60,21,0.00
2013-4-17,57.9,45.7,36.7,39.0,25.5,-99.9,86,58,40,30.47,30.42,13,-61,18,0.00
2013-4-18,51.7,42.3,44.1,46.0,26.6,-99.9,93,74,71,30.47,30.20,8,-113,19,0.34
2013-4-19,56.2,45.0,47.1,50.0,30.8,-99.9,94,78,79,30.20,30.09,10,-111,15,0.43
2013-4-20,56.4,47.6,46.3,48.0,35.7,-99.9,93,75,64,30.27,30.18,11,-59,19,0.20
2013-4-21,53.3,41.5,38.8,43.0,22.2,-99.9,93,65,45,30.43,30.25,19,-110,25,0.22
2013-4-22,60.2,45.8,32.9,39.0,24.8,-99.9,92,55,18,30.58,30.44,13,-38,18,0.00
2013-4-23,61.7,45.5,35.3,44.0,28.8,-99.9,87,63,42,30.47,30.31,8,-61,13,0.00
2013-4-24,66.7,50.5,36.3,43.0,32.0,-99.9,92,59,26,30.37,30.09,7,-40,12,0.00
2013-4-25,68.1,53.2,39.3,47.0,36.6,-99.9,89,61,38,30.16,30.07,10,-38,13,0.00
2013-4-26,63.3,54.4,47.7,51.0,37.2,-99.9,87,60,37,30.27,30.16,12,-38,16,0.00
2013-4-27,55.8,46.6,49.5,47.0,29.7,-99.9,89,69,60,30.22,30.15,13,-101,25,0.19
2013-4-28,54.6,44.1,42.2,44.0,25.4,-99.9,94,66,58,30.23,29.95,20,-110,23,0.04
2013-4-29,52.8,43.4,44.2,44.0,23.2,-99.9,92,59,39,30.17,29.93,18,-87,27,0.02
2013-4-30,54.5,44.9,39.5,38.0,27.5,-99.9,84,59,41,30.47,30.17,13,-47,16,0.00
2013-5-1,62.7,47.9,34.1,39.0,28.4,-99.9,88,56,33,30.63,30.48,10,-45,14,0.00
2013-5-8,63.7,57.7,52.3,53.0,49.2,-99.9,89,77,69,30.17,0.00,16,-11,17,0.00
2013-5-9,68.5,56.6,45.7,53.0,49.8,44.0,94,79,56,30.25,30.15,9,3,12,0.00
2013-5-10,75.1,60.3,46.8,57.0,52.0,45.0,94,76,51,30.24,30.15,8,2,9,0.00
2013-5-11,78.2,62.2,52.9,55.0,52.4,50.0,94,72,45,30.19,30.01,8,2,13,0.04
2013-5-12,67.4,60.6,56.2,59.0,56.4,54.0,95,86,67,30.09,30.02,11,3,18,0.55
2013-5-13,65.6,57.0,50.4,55.0,50.6,43.0,94,80,59,30.20,29.91,16,5,29,0.09
2013-5-14,62.8,54.3,48.4,45.0,42.4,33.0,84,66,34,30.26,30.16,14,5,18,0.00
2013-5-16,68.1,61.2,51.3,53.0,51.9,49.0,91,72,59,30.02,29.91,8,3,13,0.05
2013-5-17,61.1,55.7,50.1,52.0,50.3,48.0,93,82,70,30.08,29.95,11,3,16,0.10
2013-5-18,63.4,55.4,51.0,51.0,49.0,47.0,92,80,60,30.30,30.07,11,4,13,0.05
2013-5-19,65.4,56.4,48.7,51.0,49.0,46.0,90,77,54,30.43,30.30,10,3,13,0.00
2013-5-20,64.2,55.0,44.2,50.0,47.4,43.0,94,77,58,30.39,29.95,10,3,14,0.00
2013-5-21,54.0,50.0,47.7,49.0,46.6,45.0,95,88,77,29.95,29.82,7,2,9,0.56
2013-5-22,58.1,51.1,46.2,47.0,44.9,44.0,94,80,62,29.98,29.88,10,3,14,0.23
2013-5-23,60.2,50.4,40.4,48.0,44.9,39.0,96,82,62,30.04,29.96,11,3,15,0.04
2013-5-24,62.6,53.1,40.7,48.0,44.0,39.0,95,73,52,30.06,30.01,16,4,18,0.00
2013-5-25,64.4,55.9,51.0,50.0,47.3,45.0,88,74,51,30.06,30.02,13,4,16,0.00
2013-5-26,57.7,53.3,49.6,54.0,50.9,48.0,95,91,83,30.03,29.98,8,2,8,0.57
2013-5-27,60.1,55.8,50.3,55.0,52.2,49.0,95,88,75,29.97,29.74,8,2,14,0.17
2013-5-28,60.2,56.4,51.3,53.0,50.4,48.0,95,81,68,29.90,29.77,16,5,20,0.04
2013-5-29,59.1,53.2,50.3,51.0,49.5,47.0,97,87,69,29.98,29.71,13,4,18,0.03
2013-5-30,61.3,54.4,49.8,51.0,47.8,44.0,91,79,61,30.26,29.98,12,3,15,0.09
2013-5-31,66.8,56.5,49.1,50.0,47.4,42.0,95,74,43,30.38,30.27,8,2,10,0.00
2013-6-1,68.8,57.7,47.8,52.0,49.2,45.0,93,75,53,30.29,30.12,11,2,11,0.00
2013-6-2,67.8,58.6,51.0,52.0,50.1,48.0,90,75,52,30.12,30.07,11,3,13,0.00
2013-6-3,71.0,59.1,47.5,54.0,50.5,46.0,93,75,48,30.15,30.09,10,3,13,0.00
2013-6-4,79.8,63.7,47.7,58.0,52.0,46.0,93,69,33,30.17,30.06,7,2,10,0.00
2013-6-5,72.9,62.0,52.2,57.0,53.7,49.0,91,75,50,30.12,30.05,14,3,16,0.00
2013-6-6,76.4,64.4,51.1,57.0,51.6,41.0,92,66,40,30.09,30.01,11,4,15,0.00
2013-6-7,69.5,61.9,56.5,53.0,45.5,35.0,71,56,39,30.16,30.02,15,6,22,0.00
2013-6-8,67.0,58.7,51.7,51.0,47.3,44.0,81,67,48,30.20,30.13,15,6,22,0.00
2013-6-9,65.5,59.1,52.9,52.0,47.6,41.0,86,67,43,30.13,30.06,16,5,21,0.00
2013-6-10,67.1,57.3,43.4,50.0,46.2,41.0,91,68,49,30.06,29.91,13,4,15,0.00
2013-6-11,64.7,57.9,54.1,48.0,45.8,43.0,76,65,46,30.11,29.94,13,5,19,0.00
2013-6-12,62.1,56.6,52.2,53.0,49.5,47.0,88,77,63,30.17,30.11,11,4,14,0.11
2013-6-29,81.9,73.9,66.9,63.0,57.7,-99.9,82,62,53,30.07,0.00,10,-24,12,0.00
2013-6-30,91.1,75.4,59.3,71.0,64.4,58.0,94,71,49,30.04,29.88,8,2,10,0.00
2013-7-1,85.7,74.4,63.3,66.0,62.7,58.0,92,68,51,30.01,29.93,13,4,18,0.00
2013-7-2,81.4,70.8,63.5,60.0,56.8,50.0,77,62,49,30.12,30.02,10,5,17,0.00
2013-7-3,76.8,67.3,57.9,55.0,50.0,37.0,78,56,28,30.18,30.06,10,4,14,0.00
2013-7-4,70.7,64.1,56.3,55.0,52.0,48.0,80,66,50,30.13,30.05,15,6,18,0.00
2013-7-5,73.7,64.3,53.6,57.0,54.2,50.0,88,71,51,30.05,29.98,8,3,14,0.00
2013-7-6,77.1,64.7,52.7,58.0,54.9,50.0,93,72,51,30.02,29.89,9,2,14,0.00
2013-7-7,78.0,66.7,56.5,59.0,55.7,53.0,90,69,48,29.97,29.91,11,4,15,0.00
2013-7-8,77.7,65.0,56.7,59.0,56.6,54.0,91,75,50,30.12,29.96,14,4,17,0.00
2013-7-9,84.9,70.0,54.9,62.0,57.4,53.0,93,67,45,30.14,30.01,8,3,11,0.00
2013-7-10,72.5,64.5,58.2,57.0,51.7,44.0,78,64,45,30.07,29.97,16,7,23,0.00
2013-7-11,68.5,60.7,53.7,50.0,47.0,44.0,81,62,44,30.10,29.98,13,7,19,0.00
2013-7-12,70.2,59.9,47.9,54.0,48.1,44.0,87,66,50,30.12,30.04,12,4,15,0.00
2013-7-13,76.2,64.5,50.2,56.0,49.1,44.0,81,59,36,30.23,30.12,10,3,14,0.00
2013-7-14,78.5,64.5,49.1,56.0,49.7,40.0,91,63,27,30.17,30.04,15,3,17,0.00
2013-7-15,80.5,67.1,52.6,55.0,50.2,45.0,92,59,30,30.10,29.94,21,4,23,0.00
2013-7-16,89.6,71.7,53.7,60.0,53.1,47.0,87,57,23,29.95,29.85,21,4,26,0.00
2013-7-17,76.4,69.2,63.0,61.0,57.2,54.0,85,66,52,30.22,29.89,16,7,22,0.00
2013-7-18,76.4,67.6,61.8,59.0,56.5,54.0,79,68,55,30.26,30.15,10,4,13,0.00
2013-7-19,78.8,66.8,55.3,61.0,57.8,53.0,91,74,54,30.19,30.06,12,3,15,0.00
2013-7-20,72.2,63.5,57.5,58.0,55.3,54.0,87,75,58,30.10,29.99,14,6,17,0.00
2013-7-21,73.1,63.4,53.7,59.0,55.6,51.0,90,76,61,30.00,29.93,14,5,16,0.00
2013-7-22,78.8,66.1,56.1,62.0,57.3,53.0,90,75,53,30.08,29.96,12,4,15,0.00
2013-7-23,82.5,67.0,55.1,60.0,56.8,52.0,95,73,40,30.11,30.00,8,2,10,0.00
2013-7-24,83.3,67.0,54.4,59.0,55.8,52.0,91,69,39,30.09,30.02,9,3,10,0.00
2013-7-25,80.8,65.5,53.3,60.0,55.3,51.0,93,72,43,30.14,30.04,11,3,12,0.00
2013-7-26,77.4,65.6,53.3,59.0,54.3,50.0,91,69,45,30.18,30.11,14,4,19,0.00
2013-7-27,77.2,65.3,53.1,56.0,53.1,50.0,89,67,41,30.18,30.03,13,2,13,0.00
2013-7-28,74.4,62.8,51.1,57.0,53.2,48.0,91,73,52,30.04,29.96,14,4,18,0.00
2013-7-29,73.8,64.5,57.8,57.0,55.3,54.0,88,73,54,30.04,29.97,15,4,16,0.00
2013-7-30,72.9,63.2,54.8,59.0,55.7,52.0,91,77,60,30.16,30.03,11,4,15,0.00
2013-7-31,70.5,62.4,55.7,61.0,56.4,53.0,92,81,65,30.15,30.02,10,3,13,0.00
2013-8-1,69.6,62.2,55.8,59.0,56.5,54.0,92,82,68,30.08,30.03,10,5,18,0.00
2013-8-2,64.5,60.4,57.7,59.0,56.4,54.0,91,87,78,30.17,30.07,7,3,14,0.30
2013-8-3,74.9,65.5,58.1,60.0,58.1,56.0,95,78,60,30.17,30.09,11,2,13,0.00
2013-8-4,80.5,67.4,56.3,64.0,59.2,55.0,94,77,54,30.10,29.98,10,2,13,0.00
2013-8-5,82.6,67.3,55.1,62.0,58.1,53.0,94,75,48,30.05,29.96,8,2,10,0.00
2013-8-6,81.5,65.3,52.9,58.0,54.5,50.0,94,72,37,30.04,29.95,9,2,11,0.00
2013-8-7,81.4,66.5,53.9,58.0,55.6,52.0,93,70,40,30.04,29.96,11,3,13,0.00
2013-8-8,80.5,67.7,57.5,60.0,57.6,54.0,91,72,46,30.05,29.95,11,4,15,0.00
2013-8-9,84.0,68.5,54.8,62.0,57.6,53.0,95,71,46,29.98,29.86,8,3,11,0.00
2013-8-10,76.2,68.1,61.6,61.0,58.3,51.0,88,72,56,30.02,29.88,15,5,21,0.00
2013-8-11,70.2,64.3,58.8,58.0,55.8,49.0,89,74,54,30.10,30.02,11,4,15,0.04
2013-8-12,74.9,65.8,58.9,58.0,56.4,55.0,86,72,53,30.11,30.04,12,3,15,0.00
2013-8-13,77.7,66.9,58.0,58.0,56.2,54.0,88,70,49,30.13,29.97,10,3,13,0.00
2013-8-14,81.2,66.7,54.8,65.0,58.9,53.0,93,78,49,29.99,29.93,9,2,11,0.11
2013-8-15,65.5,64.2,63.5,63.0,62.1,61.0,95,93,90,29.98,29.95,4,1,5,0.00
2013-8-16,79.0,71.7,66.3,64.0,62.8,61.0,86,74,56,30.02,29.98,4,2,6,0.10
2013-8-17,75.8,67.5,62.1,62.0,59.1,57.0,94,75,59,30.09,30.01,16,4,20,0.01
2013-8-18,74.9,66.9,61.8,59.0,57.1,54.0,87,72,56,30.15,30.08,14,4,19,0.00
2013-8-19,73.3,66.1,59.0,59.0,54.2,49.0,80,66,45,30.16,30.08,12,3,18,0.00
2013-8-20,76.2,62.6,51.0,59.0,52.3,48.0,91,71,41,30.21,30.13,8,2,14,0.00
2013-8-21,81.4,64.5,48.5,60.0,53.1,45.0,91,69,43,30.14,29.98,10,2,13,0.00
2013-8-22,85.4,69.2,52.6,60.0,55.4,50.0,90,64,37,30.00,29.82,8,2,12,0.00
2013-8-23,72.2,67.7,62.1,58.0,55.9,51.0,80,66,53,29.91,29.83,16,6,22,0.00
2013-8-24,72.3,64.4,59.2,60.0,56.3,53.0,93,76,55,29.94,29.90,12,3,14,0.12
2013-8-25,75.2,63.7,50.8,57.0,54.1,49.0,93,73,48,29.98,29.89,9,2,11,0.00
2013-8-26,77.1,67.3,58.5,58.0,55.5,52.0,87,67,47,29.95,29.86,14,4,23,0.00
2013-8-27,76.6,67.8,60.8,61.0,58.3,56.0,92,72,57,29.96,29.83,15,3,23,0.12
2013-8-28,79.4,67.5,59.5,65.0,61.7,58.0,95,83,62,29.92,29.84,8,2,11,0.12
2013-8-29,75.3,67.7,62.7,66.0,62.4,60.0,96,84,64,29.97,29.88,20,4,29,0.25
2013-8-30,74.2,66.5,58.9,62.0,59.2,57.0,93,78,59,30.18,29.98,19,3,25,0.10
2013-8-31,78.9,64.3,52.3,61.0,56.8,51.0,95,78,49,30.13,29.88,8,2,10,0.00
2013-9-1,77.2,66.1,54.1,60.0,56.8,52.0,94,73,52,29.91,29.83,11,3,16,0.00
2013-9-2,76.0,66.8,58.0,62.0,58.6,55.0,92,76,57,29.97,29.89,9,2,13,0.00
2013-9-3,72.5,63.4,58.6,64.0,59.6,56.0,95,88,73,30.07,29.97,8,2,11,0.22
2013-9-4,72.9,63.5,56.5,63.0,59.7,55.0,97,88,71,30.09,30.04,10,2,13,0.04
2013-9-5,66.9,61.3,55.3,63.0,59.1,54.0,96,92,85,30.09,29.95,7,1,8,0.11
2013-9-6,70.2,63.6,60.4,63.0,60.8,59.0,96,90,76,30.12,29.95,8,2,13,0.27
2013-9-7,74.7,66.0,59.1,63.0,60.7,57.0,94,83,64,30.13,30.06,10,2,11,0.09
2013-9-8,75.3,64.3,55.5,62.0,58.6,54.0,95,83,61,30.14,30.05,10,2,11,0.00
2013-9-9,75.3,63.7,55.0,63.0,58.6,54.0,97,84,63,30.10,30.02,8,2,8,0.00
2013-9-10,79.2,65.0,52.9,64.0,58.9,52.0,97,82,59,30.05,29.94,7,2,10,0.01
2013-9-11,87.6,70.8,56.4,65.0,60.9,55.0,94,74,46,29.99,29.92,6,2,8,0.00
2013-9-12,80.8,67.9,58.3,61.0,59.5,56.0,93,76,48,30.02,29.92,8,2,10,0.00
2013-9-13,66.7,62.4,57.6,60.0,58.4,56.0,94,87,78,30.00,29.90,11,4,16,0.00
2013-9-14,71.4,62.4,59.3,63.0,59.5,58.0,96,90,74,29.93,29.79,5,1,6,0.00
2013-9-15,70.5,60.6,56.0,62.0,58.1,55.0,97,92,73,29.83,29.74,16,3,22,0.24
2013-9-16,65.7,61.7,58.9,60.0,57.7,50.0,96,87,72,29.94,29.81,15,4,18,0.28
2013-9-17,65.1,59.0,55.5,57.0,53.4,51.0,91,82,69,29.94,29.88,7,2,11,0.04
2013-9-18,68.9,60.5,51.9,54.0,52.0,49.0,90,75,50,30.10,29.94,10,3,17,0.00
2013-9-19,77.3,61.7,50.5,56.0,51.0,48.0,91,71,40,30.09,29.78,7,2,10,0.00
2013-9-20,74.8,59.6,49.1,57.0,51.5,47.0,93,77,46,29.78,29.61,9,2,11,0.08
2013-9-21,67.4,61.7,57.4,56.0,53.7,49.0,93,76,53,29.74,29.66,13,4,16,0.03
2013-9-22,59.8,57.3,55.3,55.0,52.6,49.0,93,84,68,29.71,29.53,26,7,32,0.43
2013-9-23,60.8,55.7,52.0,54.0,50.4,47.0,93,83,68,29.98,29.72,11,4,16,0.15
2013-9-24,62.5,53.3,48.5,50.0,48.0,46.0,94,83,62,29.99,29.87,11,2,16,0.26
2013-9-25,63.8,53.4,45.6,50.0,47.5,44.0,95,81,51,30.05,29.90,13,3,17,0.00
2013-9-26,64.3,52.1,40.7,49.0,45.0,39.0,94,78,51,30.15,30.05,8,2,13,0.00
2013-9-27,56.4,54.1,51.3,51.0,49.4,47.0,93,84,70,30.13,29.85,9,3,15,0.39
2013-9-28,60.7,55.2,51.9,57.0,51.8,48.0,95,88,81,29.85,29.30,22,6,32,0.28
2013-9-29,56.7,54.1,52.7,51.0,48.8,43.0,91,82,67,29.54,29.13,21,9,32,0.02
2013-9-30,55.1,51.5,49.1,50.0,46.8,44.0,91,84,70,29.91,29.35,20,6,27,0.25
2013-10-1,56.4,51.4,48.7,48.0,45.5,44.0,91,81,68,30.12,29.91,10,4,19,0.06
2013-10-2,51.7,49.1,46.1,48.0,46.7,45.0,96,91,84,30.22,30.10,8,2,12,0.54
2013-10-3,57.9,48.0,41.8,49.0,44.9,40.0,97,90,69,30.50,30.23,9,2,9,0.01
2013-10-4,60.2,49.2,37.5,51.0,44.7,36.0,96,85,65,30.53,30.39,7,1,8,0.00
2013-10-5,64.7,56.1,49.0,51.0,49.5,46.0,93,80,51,30.41,30.17,11,2,12,0.00
2013-10-6,76.4,59.4,43.8,55.0,45.0,37.0,95,65,25,30.17,29.84,20,4,27,0.00
2013-10-7,60.2,55.4,52.4,51.0,49.1,46.0,92,80,62,29.99,29.84,20,7,36,0.17
2013-10-8,57.1,50.8,43.3,49.0,45.0,41.0,92,81,59,30.13,29.98,11,3,21,0.12
2013-10-9,58.4,48.5,36.9,46.0,41.6,35.0,94,78,53,30.18,29.98,9,2,12,0.00
2013-10-10,57.3,50.2,41.0,48.0,44.4,39.0,94,81,65,30.11,29.96,7,2,9,0.00
2013-10-11,54.7,46.5,37.1,48.0,42.7,35.0,94,87,73,30.18,30.11,6,1,6,0.01
2013-10-12,58.5,49.6,42.0,48.0,45.4,40.0,95,86,67,30.26,30.12,8,2,14,0.05
2013-10-13,59.8,47.1,40.4,47.0,43.2,39.0,97,87,60,30.41,30.26,7,2,10,0.00
2013-10-14,60.0,46.2,35.9,49.0,41.9,34.0,96,85,62,30.47,30.41,7,1,10,0.01
2013-10-15,59.6,47.6,40.2,50.0,44.6,39.0,96,89,68,30.43,30.22,8,1,10,0.01
2013-10-16,59.4,49.6,43.5,51.0,46.8,42.0,96,90,73,30.25,30.19,7,1,8,0.00
2013-10-17,60.0,50.2,42.8,51.0,46.9,42.0,96,89,70,30.32,30.25,7,1,10,0.00
2013-10-18,58.5,47.2,40.4,51.0,44.8,39.0,97,92,73,30.30,30.20,5,1,8,0.01
2013-10-19,50.1,45.0,40.0,48.0,43.7,39.0,97,95,90,30.25,30.19,4,1,6,0.00
2013-10-20,52.3,48.1,45.8,48.0,46.1,45.0,96,93,85,30.25,30.19,6,2,7,0.00
2013-10-21,56.4,48.5,45.9,51.0,46.9,45.0,96,94,81,30.22,30.14,4,1,7,0.01
2013-10-22,47.3,45.4,43.9,46.0,44.6,43.0,97,97,96,30.17,30.16,4,1,6,0.01
2013-11-5,45.5,42.2,40.8,44.0,39.0,-99.9,96,93,90,30.30,0.00,4,-18,7,0.15
2013-11-6,49.3,45.3,41.6,45.0,42.7,41.0,96,90,82,30.37,30.03,8,3,13,0.02
2013-11-7,56.2,49.0,44.4,51.0,45.5,42.0,97,88,77,30.02,29.68,25,6,34,0.35
2013-11-8,54.3,48.9,45.4,46.0,43.8,42.0,92,83,69,30.19,29.98,11,4,16,0.06
2013-11-9,48.7,43.1,38.2,43.0,40.3,36.0,95,90,79,30.19,30.13,5,1,6,0.00
2013-11-10,50.3,45.2,41.6,44.0,42.2,40.0,94,89,74,30.22,30.16,7,2,7,0.01
2013-11-11,55.4,47.4,41.5,47.0,43.5,40.0,94,86,72,30.21,30.04,7,2,7,0.00
2013-11-12,57.3,52.9,44.2,52.0,48.4,43.0,94,85,73,30.35,30.03,15,4,24,0.07
2013-11-13,56.6,52.6,49.7,50.0,47.5,45.0,93,83,71,30.45,30.34,14,3,19,0.04
2013-11-14,51.7,47.4,42.6,46.0,43.4,40.0,93,86,71,30.34,30.08,7,2,12,0.01
2013-11-15,46.8,44.4,41.4,44.0,40.9,38.0,91,87,81,30.08,29.30,21,7,36,0.01
2013-11-16,46.9,44.4,41.0,40.0,37.4,34.0,88,77,65,29.76,29.37,13,5,23,0.01
2013-11-17,50.5,45.1,39.1,44.0,40.6,35.0,91,84,73,29.92,29.77,16,4,24,0.09
2013-11-18,49.5,46.2,43.4,47.0,44.2,42.0,96,93,85,29.92,29.55,8,3,13,1.35
2013-11-19,44.5,40.6,32.1,43.0,32.3,19.0,96,75,37,30.11,29.60,14,2,19,0.20
2013-11-20,40.0,31.5,26.4,28.0,24.2,22.0,87,75,49,30.57,30.12,6,2,9,0.00
2013-11-21,39.1,29.4,23.2,28.0,23.6,21.0,91,80,54,30.73,30.58,6,2,8,0.00
2013-11-22,42.8,31.9,24.3,30.0,26.3,22.0,92,81,57,30.72,30.52,7,2,10,0.00
2013-11-23,48.3,35.1,28.2,36.0,30.5,26.0,94,84,62,30.51,30.26,9,2,11,0.00
2013-11-24,48.3,36.2,28.0,39.0,32.5,27.0,95,87,68,30.30,30.22,8,2,9,0.00
2013-11-25,50.8,39.0,31.4,41.0,35.4,30.0,95,87,68,30.36,30.30,5,1,7,0.00
2013-11-26,50.6,39.3,30.2,40.0,34.6,29.0,95,84,60,30.31,30.15,7,1,9,0.01
2013-11-27,54.0,43.3,36.0,40.0,36.9,34.0,93,79,58,30.15,30.01,8,1,10,0.00
2013-11-28,53.2,42.1,33.2,44.0,38.4,32.0,95,87,68,30.22,30.07,3,1,5,0.02
2013-11-29,50.7,47.3,44.6,45.0,43.2,40.0,95,85,73,30.34,30.22,7,2,14,0.11
2013-11-30,49.0,46.6,44.3,46.0,44.3,42.0,95,92,86,30.35,30.08,9,2,15,0.45
2013-12-1,52.0,49.1,42.5,48.0,44.2,33.0,93,83,65,30.08,29.74,18,7,30,0.40
2013-12-2,42.1,36.3,30.0,35.0,29.1,15.0,94,76,53,30.16,29.80,37,8,44,0.24
2013-12-3,35.5,31.9,29.2,15.0,13.5,12.0,55,47,42,30.38,30.16,28,16,37,0.00
2013-12-4,31.4,29.8,28.7,13.0,12.6,12.0,51,48,44,30.38,30.37,19,12,24,0.00